Weather Roundup
Issued by NWS Chicago, IL

Home | Current Version | Previous Version | Text Only | Print | Product List | Glossary Off
Versions: 1 2 3 4 5 6 7 8 9 10 11 12 13 14 15 16 17 18 19 20 21 22 23 24 25 26 27 28 29 30 31 32 33 34 35 36 37 38 39 40 41 42 43 44 45 46 47 48 49 50

000
NZUS59 KLOT 020613
HRRLOT

CHICAGO AREA WEATHER ROUNDUP
NATIONAL WEATHER SERVICE CHICAGO/ROMEOVILLE IL
100 AM CDT WED SEP 02 2015

NOTE: "FAIR" INDICATES FEW OR NO CLOUDS BELOW 12,000 FEET WITH NO
SIGNIFICANT WEATHER AND/OR OBSTRUCTIONS TO VISIBILITY.

* THESE STATIONS ARE NOT UNDER NWS QUALITY CONTROL. THEY ALSO MAY NOT
  REPORT WEATHER SUCH AS PRECIPITATION OR FOG.

ILZ005-006-012>014-019>023-020700-
NORTHEAST ILLINOIS

CITY           SKY/WX    TMP DP  RH WIND       PRES   REMARKS
OHARE            N/A     76  70  82 SW6       30.03S
6HR MIN TEMP:  76; 6HR MAX TEMP:  85;

MIDWAY           N/A     78  69  73 SW8       30.04S HX  80
6HR MIN TEMP:  78; 6HR MAX TEMP:  87;

AURORA           N/A     73  69  87 SW6       30.05S
6HR MIN TEMP:  73; 6HR MAX TEMP:  84;

LANSING*         N/A     72  68  87 SW6       30.05S
JOLIET*          N/A     73  70  89 SW3       30.06R
WAUKEGAN         N/A     76  71  85 SW7       30.01F
6HR MIN TEMP:  76; 6HR MAX TEMP:  82;

DUPAGE AIRPORT   N/A     74  69  85 SW9       30.04S
6HR MIN TEMP:  73; 6HR MAX TEMP:  83;

WHEELING         N/A     78  70  76 SW7       30.04S HX  80
6HR MIN TEMP:  78; 6HR MAX TEMP:  86;

KANKAKEE*        N/A     70  68  93 SW7       30.07S
MORRIS*          N/A     72  68  88 SW3       30.04S
LEWIS AIRPORT*   N/A     71  67  88 SW5       30.05S
NORTHERLY IS     N/A     78  68  71 W9          N/A  HX  80
$$

WIZ051-052-058>065-066-070>072-020700-
SOUTHEAST WISCONSIN

CITY           SKY/WX    TMP DP  RH WIND       PRES   REMARKS
MILWAUKEE        N/A     77  70  79 SW10      30.00F
6HR MIN TEMP:  76; 6HR MAX TEMP:  85;

KENOSHA*         N/A     76  72  87 SW7       30.02S
RACINE*        MOCLDY    76  70  82 SW3       30.02F
BURLINGTON       N/A     68  67  97 SW3       30.02S FOG
WAUKESHA         N/A     72  68  88 S3        30.02F
WEST BEND        N/A     73  68  83 CALM      30.00S
$$

INZ001>003-010>013-019-020-020700-
NORTHWEST INDIANA

CITY           SKY/WX    TMP DP  RH WIND       PRES   REMARKS
GARY*            N/A     76  67  74 SW3       30.05S
6HR MIN TEMP:  76; 6HR MAX TEMP:  85;

MICHIGAN CITY* NOT AVBL
RENSSELAER*    NOT AVBL
VALPARAISO       N/A     72  68  87 CALM      30.07S
$$

LMZ740>746-020700-
SOUTHERN LAKE MICHIGAN

STATION/POSITION TIME  SKY/WX   TEMP WIND        PRES    VSBY
                                AIR  DIR/SP/G
                 (UTC)          (F)  (DEG/KT/KT) (MB)    (MI)
HARRISON CRIB    0600            76  220/  8/ 14   N/A
BURNHAM HARBOR   0600            78  230/  6/ 12   N/A
CALUMET HARBOR   0500            77  210/  9/ 12   N/A
BURNS HARBOR     0500            76  200/ 11/ 14 1017.9S
MICHIGAN CITY    0500            76  180/ 10/ 11   N/A
$$

ABBREVIATIONS USED IN REMARKS
   TC - TEMPERATURE IN CELSIUS
  WCI - WIND CHILL INDEX
   HX - HEAT INDEX
  VSB - VISIBILITY
$$


USA.gov is the U.S. government's official web portal to all federal, state and local government web resources and services.